EW3803 Weather Reports


time (UTC)temp
C
wind
direction
speed
KPH
gust
KPH
rain 1hr
cm
rain 24hr
cm
rain mn
cm
humidity
%
barometer
mb
20260905144527 27 123 8.0 16.1 0.00 0.00 0.00 69 1017.9
20260905143026 27 124 4.8 16.1 0.00 0.00 0.00 68 1018.0
20260905141532 29 150 12.9 17.7 0.00 0.00 0.00 57 1017.9
20260905140029 28 188 3.2 11.3 0.00 0.00 0.00 57 1017.8
20260905134531 30 181 6.4 12.9 0.00 0.03 0.00 54 1017.8
20260905133020 29 239 6.4 9.7 0.00 0.03 0.00 56 1017.5
20260905131528 28 201 4.8 11.3 0.00 0.03 0.00 57 1017.7
20260905130038 28 192 4.8 9.7 0.00 0.03 0.00 58 1017.7
20260905124531 28 199 6.4 9.7 0.00 0.03 0.00 62 1017.6
20260905123017 27 192 4.8 9.7 0.00 0.03 0.00 62 1017.7
20260905121524 27 231 4.8 9.7 0.00 0.03 0.00 64 1017.7
20260905120031 27 239 8.0 11.3 0.00 0.03 0.00 64 1017.8
20260905114510 27 215 4.8 11.3 0.00 0.03 0.00 65 1017.8
20260905113017 27 200 4.8 11.3 0.00 0.03 0.00 66 1017.9
20260905111532 26 188 3.2 9.7 0.00 0.03 0.00 68 1018.0
20260905110030 26 254 4.8 11.3 0.00 0.03 0.00 68 1018.1
20260905104531 27 225 4.8 8.0 0.00 0.03 0.00 65 1018.2
20260905103015 27 225 1.6 4.8 0.00 0.03 0.00 67 1018.3
20260905101520 26 225 0.0 3.2 0.00 0.03 0.00 73 1018.3
20260905100029 25 225 3.2 6.4 0.00 0.03 0.00 75 1018.4
20260905094532 25 208 4.8 11.3 0.00 0.03 0.00 74 1018.3
20260905093010 26 234 4.8 12.9 0.00 0.03 0.00 71 1017.9
20260905091518 27 200 3.2 6.4 0.00 0.03 0.00 67 1017.7
20260905090027 26 266 3.2 4.8 0.00 0.03 0.00 75 1017.5
20260905084528 25 295 0.0 4.8 0.00 0.03 0.00 81 1017.5
20260905083030 23 226 1.6 4.8 0.00 0.03 0.00 84 1017.4
20260905081514 23 350 0.0 3.2 0.00 0.03 0.00 85 1017.4
20260905080020 23 360 0.0 3.2 0.00 0.03 0.00 86 1017.6
20260905074528 22 360 0.0 6.4 0.00 0.03 0.00 89 1017.4
20260905073032 20 360 3.2 6.4 0.00 0.03 0.00 92 1017.5
20260905071532 20 43 6.4 9.7 0.00 0.03 0.00 94 1017.6
20260905070018 20 73 6.4 14.5 0.00 0.03 0.00 94 1017.6
20260905064526 20 87 8.0 14.5 0.00 0.03 0.00 93 1017.5
20260905063030 20 70 4.8 12.9 0.00 0.03 0.00 94 1017.5
20260905061538 20 43 3.2 8.0 0.00 0.03 0.00 94 1017.5
20260905060020 19 55 4.8 11.3 0.00 0.03 0.00 94 1017.5
20260905054532 19 89 4.8 11.3 0.00 0.03 0.00 94 1017.3
20260905053028 19 68 4.8 12.9 0.00 0.00 0.00 93 1017.3
20260905051532 18 71 4.8 11.3 0.00 0.00 0.00 93 1017.3
20260905050033 19 67 6.4 8.0 0.00 0.00 0.00 93 1017.2
20260905044527 19 67 3.2 8.0 0.00 0.00 0.00 93 1017.2
20260905043031 19 67 1.6 3.2 0.00 0.00 0.00 93 1017.2
20260905041546 18 67 1.6 4.8 0.00 0.00 0.00 93 1017.3
20260905040032 18 66 4.8 11.3 0.00 0.00 0.00 93 1017.6
20260905034541 18 84 9.7 12.9 0.00 0.00 0.00 92 1017.7
20260905033027 19 76 3.2 6.4 0.00 0.00 0.00 92 1017.5
20260905031504 19 69 3.2 9.7 0.00 0.00 0.00 92 1017.6
20260905030012 19 80 4.8 9.7 0.00 0.00 0.00 91 1017.6
20260905024520 20 32 1.6 4.8 0.00 0.00 0.00 91 1017.7
20260905023027 20 32 1.6 6.4 0.00 0.00 0.00 90 1017.9
20260905021534 20 15 1.6 4.8 0.00 0.00 0.00 90 1017.8
20260905020009 20 340 1.6 3.2 0.00 0.00 0.00 89 1017.8
20260905014515 20 340 0.0 3.2 0.00 0.00 0.00 89 1017.9
20260905013023 20 340 3.2 3.2 0.00 0.00 0.00 89 1018.0
20260905011529 20 340 1.6 3.2 0.00 0.00 0.00 89 1018.2
20260905010008 20 340 0.0 4.8 0.00 0.00 0.00 90 1018.0
20260905004517 20 340 3.2 6.4 0.00 0.00 0.00 90 1018.2
20260905003017 20 12 4.8 6.4 0.00 0.00 0.00 89 1018.6
20260905001527 20 296 1.6 3.2 0.00 0.00 0.00 89 1018.8
20260905000029 20 241 0.0 3.2 0.00 0.00 0.00 88 1018.6
20260904234511 20 242 1.6 4.8 0.00 0.00 0.00 87 1018.5
20260904233017 21 174 1.6 8.0 0.00 0.00 0.00 86 1018.6
20260904231526 21 61 0.0 4.8 0.00 0.00 0.00 86 1018.5
20260904230030 21 58 3.2 4.8 0.00 0.00 0.00 86 1018.2
20260904224529 21 63 3.2 6.4 0.00 0.00 0.00 86 1018.4
20260904223012 20 55 6.4 9.7 0.00 0.00 0.00 86 1018.6
20260904221520 21 99 8.0 12.9 0.00 0.00 0.00 86 1018.9
20260904220028 21 98 8.0 11.3 0.00 0.00 0.00 86 1018.9
20260904214531 21 44 1.6 6.4 0.00 0.00 0.00 86 1018.9
20260904213039 21 105 6.4 9.7 0.00 0.00 0.00 86 1019.1
20260904211516 21 89 6.4 11.3 0.00 0.00 0.00 86 1019.2
20260904210025 21 84 6.4 16.1 0.00 0.00 0.00 86 1019.1
20260904204527 21 112 16.1 19.3 0.00 0.00 0.00 86 1019.1
20260904203033 21 71 12.9 17.7 0.00 0.00 0.00 81 1019.2
20260904201514 22 57 3.2 11.3 0.00 0.00 0.00 77 1018.9
20260904200023 22 107 6.4 19.3 0.00 0.00 0.00 74 1018.5
20260904194533 23 88 8.0 22.5 0.00 0.00 0.00 69 1018.3
20260904193030 27 63 8.0 14.5 0.00 0.00 0.00 52 1017.7
20260904191535 27 290 1.6 3.2 0.00 0.00 0.00 52 1017.5
20260904190017 28 273 0.0 4.8 0.00 0.00 0.00 52 1017.2
20260904184526 28 265 3.2 9.7 0.00 0.00 0.00 53 1017.1
20260904183030 28 277 6.4 11.3 0.00 0.00 0.00 55 1017.1
20260904181537 30 235 4.8 12.9 0.00 0.00 0.00 48 1017.0
20260904180046 32 281 12.9 20.9 0.00 0.00 0.00 36 1017.0
20260904174520 32 315 11.3 17.7 0.00 0.00 0.00 39 1017.0
20260904173036 31 300 16.1 22.5 0.00 0.00 0.00 41 1017.1
20260904171600 30 333 8.0 17.7 0.00 0.00 0.00 47 1017.2
20260904170012 30 322 11.3 17.7 0.00 0.00 0.00 48 1017.3
20260904164518 29 308 8.0 19.3 0.00 0.00 0.00 53 1017.3
20260904163026 28 327 9.7 22.5 0.00 0.00 0.00 61 1017.7
20260904161529 27 338 14.5 25.7 0.00 0.00 0.00 67 1017.7
20260904160016 26 345 17.7 24.1 0.00 0.00 0.00 71 1018.4
20260904154532 25 360 16.1 22.5 0.00 0.00 0.00 76 1019.0
20260904153030 24 46 6.4 12.9 0.00 0.00 0.00 82 1019.6
20260904151533 23 327 6.4 14.5 0.00 0.00 0.00 85 1019.6
20260904150031 22 261 3.2 6.4 0.00 0.00 0.00 87 1019.7